Regional Weather Roundup
Issued by NWS

Home | Current Version | Previous Version | Graphics & Text | Print | Product List | Glossary On
Versions: 1 2 3 4 5 6 7 8 9 10 11 12 13 14 15 16 17 18 19 20 21 22 23 24 25 26 27 28 29 30 31 32 33 34 35 36 37 38 39 40 41 42 43 44 45 46 47 48 49 50
500
ASUS43 KOAX 230302
RWRNE

WEATHER ROUNDUP FOR NEBRASKA
NATIONAL WEATHER SERVICE OMAHA NE
1000 PM CDT THU JUN 22 2017

NOTES: SATELLITE DATA IS BEING USED TO AUGMENT CLOUD COVER ABOVE
       12000 FEET.
       "FAIR" INDICATES FEW OR NO CLOUDS BELOW 12,000 FEET WITH NO
       SIGNIFICANT WEATHER AND/OR OBSTRUCTIONS TO VISIBILITY.

  * THESE STATIONS DO NOT REPORT WEATHER SUCH AS RAIN...SNOW OR FOG.

NEZ001>004-019>022-054>056-230400-
NEBRASKA PANHANDLE

CITY           SKY/WX    TMP DP  RH WIND       PRES   REMARKS
SCOTTSBLUFF    CLOUDY    72  47  40 NE13      29.97R
ALLIANCE       CLEAR     62  47  57 NE12      29.98R
CHADRON        PTCLDY    65  45  48 NE3       29.99R
GORDON         FAIR      60  43  52 N7        29.98R
KIMBALL        CLOUDY    67  53  59 NE9       30.01R
SIDNEY         CLOUDY    69  52  54 E10       29.98R
$$

NEZ057>060-069>072-079>082-230400-
SOUTHWEST NEBRASKA

CITY           SKY/WX    TMP DP  RH WIND       PRES   REMARKS
NORTH PLATTE   PTCLDY    70  50  49 N9        29.92R
IMPERIAL       PTCLDY    71  54  54 NE12      29.90F
LEXINGTON      PTCLDY    72  56  57 N8        29.87R
MCCOOK         CLOUDY    74  59  59 N14       29.87R
OGALLALA       MOCLDY    73  51  47 NE9       29.93F
$$

NEZ005>010-023>029-035>040-094-230400-
NORTH CENTRAL NEBRASKA

CITY           SKY/WX    TMP DP  RH WIND       PRES   REMARKS
VALENTINE      CLEAR     69  44  40 N6        29.94R
AINSWORTH      CLEAR     62  49  63 NE5       29.94R
BROKEN BOW     CLOUDY    68  53  58 N13       29.90R
O`NEILL        CLOUDY    67  53  59 N8        29.90R
ORD            CLEAR     67  55  65 N8        29.87R
THEDFORD       CLOUDY    66  50  57 NE3       29.96R
$$

NEZ041-046>049-061>064-073>077-083>087-230400-
SOUTH CENTRAL NEBRASKA

CITY           SKY/WX    TMP DP  RH WIND       PRES   REMARKS
GRAND ISLAND   CLEAR     71  63  75 N16       29.81R
HASTINGS       PTCLDY    74  61  63 N22G28    29.81R
HEBRON         MOCLDY    82  67  60 N13G26    29.70R
HOLDREGE       MOCLDY    74  59  59 N15       29.85R
KEARNEY *      MOCLDY    72  57  60 N20       29.84R
$$

NEZ011>018-030>034-042>045-230400-
NORTHEAST NEBRASKA

CITY           SKY/WX    TMP DP  RH WIND       PRES   REMARKS
NORFOLK        PTCLDY    71  62  73 N13       29.82R
ALBION         CLEAR     71  61  70 N6        29.84R
BLAIR          MOCLDY    76  66  71 N15G26    29.72R
FREMONT        CLOUDY    76  65  66 N10G18    29.74R
TEKAMAH        CLOUDY    74  63  68 N25G33    29.75R
WAYNE          CLEAR     71  64  79 N9        29.82R
$$

NEZ050>053-065>068-078-088>093-230400-
SOUTHEAST NEBRASKA

CITY           SKY/WX    TMP DP  RH WIND       PRES   REMARKS
LINCOLN        CLOUDY    80  64  58 N18       29.70R
OMAHA EPPLEY   MOCLDY    82  68  62 N15       29.69R
BEATRICE       MOCLDY    82  71  68 CALM      29.67R
FALLS CITY     CLEAR     78  71  79 SE6       29.66R
NEBRASKA CITY  PTCLDY    80  70  71 S3        29.67R
PLATTSMOUTH    CLOUDY    80  71  73 N7        29.69R
$$

NEZ044-045-051>053-067-230400-
OMAHA AREA

CITY           SKY/WX    TMP DP  RH WIND       PRES   REMARKS
OMAHA EPPLEY   MOCLDY    82  68  62 N15       29.69R
BLAIR          MOCLDY    76  66  71 N15G26    29.72R
FREMONT        CLOUDY    76  65  66 N10G18    29.74R
MILLARD        MOCLDY    83  69  61 N5        29.69R
OFFUTT AFB     PTCLDY    82  67  60 N13       29.68R
PLATTSMOUTH    CLOUDY    80  71  73 N7        29.69R
WAHOO          FAIR      77  64  63 N20G26    29.73R
$$




USA.gov is the U.S. government's official web portal to all federal, state and local government web resources and services.